Location: Bergnershof
(48.9468°N, 10.9431°E)
Time: 23:39:21
(UTC+00:00)

NOSS 3-3 (A) - Pass Details

Date: 03 March 2021
Orbit: 815 x 1397 km, 63.4° (Epoch: 13 April)

Event Time Altitude Azimuth Distance (km) Brightness Sun altitude
Rises 20:08:00 0° 317° (NW) 3,940 8.2 -30.3°
Reaches altitude 10° 20:10:32 10° 317° (NW) 3,057 7.4 -30.7°
Maximum altitude 20:18:00 83° 231° (SW) 1,282 4.4 -31.7°
Enters shadow 20:18:42 75° 171° (S) 1,318 4.4 -31.8°
